Terug naar catalogus

STARLINK-1403

ActiefCommunicatieVLEO
NORAD 45701·PAYLOAD·🇺🇸 United States

Gelanceerd Jun 4, 2020 vanaf Cape Canaveral Space Force Station

Loading…

Volgende Passages (komende 24 uur)

TLE

VersSource: CelesTrak SupGP

Epoch: Sep 15, 2026, 02:28 UTC

1 45701C 20035AW  26258.10326389  .00016997  00000+0  38950-3 0  2589
2 45701  53.1511 230.6820 0003066  68.3983 202.6791 15.42169170    12

Volg STARLINK-1403 in realtime met AllMySat

Download on the App Store